Location: Sungai Laei
(2.6000°N, 113.7167°E)
Time: 08:03:39
(UTC+00:00)

BLOCK DM-SL R/B - Visible Passes

Search period start: 06 October 2022 00:00
Search period end: 16 October 2022 00:00
Orbit: 901 x 35752 km, 0.9° (Epoch: 05 October)

Date Brightness Start Highest point End Pass type
(mag) Time Alt. Az. Time Alt. Az. Time Alt. Az.
06 Oct 5.7 18:51:39 30° E 18:51:39 30° E 18:57:33 10° E visible
07 Oct 10.6 06:56:39 10° W 08:00:29 16° W 09:43:37 10° W visible
08 Oct 5.7 03:30:24 10° W 05:19:42 59° W 13:23:54 79° S visible
09 Oct 6.8 00:42:42 10° W 10:25:59 85° S 10:52:13 10° E visible
10 Oct 4.6 19:28:47 63° ESE 19:28:47 63° ESE 19:44:08 10° E visible
12 Oct 6.0 04:15:53 10° W 06:00:19 45° W 14:01:13 57° WSW visible
13 Oct 6.3 01:23:13 10° W 11:14:37 84° S 11:29:33 23° E visible
14 Oct 4.4 20:05:53 60° WSW 20:07:34 78° S 05:52:10 10° E visible
